EW7004 Weather Reports


Display with metric or nautical units.
time (UTC)temp
F
wind
direction
speed
MPH
gust
MPH
rain 1hr
in
rain 24hr
in
rain mn
in
humidity
%
barometer
mb
20260507151903 62 135 0.0 0.0 0.00 0.00 0.00 68 1034.2
20260507150403 61 135 0.0 0.0 0.00 0.00 0.00 72 1034.2
20260507145903 60 135 0.0 0.0 0.00 0.00 0.00 74 1034.2
20260507145403 60 135 0.0 1.0 0.00 0.00 0.00 74 1034.2
20260507144903 59 135 0.0 0.0 0.00 0.00 0.00 76 1034.2
20260507144403 58 135 0.0 0.0 0.00 0.00 0.00 77 1034.2
20260507143903 58 135 0.0 0.0 0.00 0.00 0.00 79 1034.2
20260507143403 57 135 0.0 0.0 0.00 0.00 0.00 80 1034.2
20260507142903 57 136 0.0 0.0 0.00 0.00 0.00 80 1034.3
20260507142403 57 136 0.0 0.0 0.00 0.00 0.00 81 1034.4
20260507141904 56 136 0.0 0.0 0.00 0.00 0.00 81 1034.3
20260507140403 55 136 0.0 0.0 0.00 0.00 0.00 83 1034.2
20260507135903 55 136 0.0 0.0 0.00 0.00 0.00 84 1034.1
20260507135404 54 136 0.0 0.0 0.00 0.00 0.00 84 1034.1
20260507134904 54 136 0.0 0.0 0.00 0.00 0.00 84 1034.2
20260507134403 54 136 0.0 0.0 0.00 0.00 0.00 84 1034.1
20260507133903 53 136 0.0 0.0 0.00 0.00 0.00 84 1034.1
20260507133404 53 136 0.0 0.0 0.00 0.00 0.00 84 1034.1
20260507132903 53 136 0.0 0.0 0.00 0.00 0.00 84 1034.0
20260507132403 53 136 0.0 0.0 0.00 0.00 0.00 84 1034.0
20260507131903 53 136 0.0 0.0 0.00 0.00 0.00 84 1034.0
20260507131404 53 136 0.0 0.0 0.00 0.00 0.00 84 1033.9
20260507130903 53 136 0.0 0.0 0.00 0.00 0.00 84 1033.9
20260507130403 53 136 0.0 2.0 0.00 0.00 0.00 84 1033.9
20260507125404 53 136 0.0 0.0 0.00 0.00 0.00 83 1033.8
20260507124903 53 136 0.0 2.0 0.00 0.00 0.00 83 1033.8
20260507124404 53 136 1.0 2.0 0.00 0.00 0.00 82 1033.7
20260507123903 53 136 0.0 0.0 0.00 0.00 0.00 82 1033.6
20260507122903 54 136 0.0 0.0 0.00 0.00 0.00 82 1033.8
20260507122403 54 136 0.0 0.0 0.00 0.00 0.00 81 1033.9
20260507121903 54 136 0.0 0.0 0.00 0.00 0.00 81 1033.8
20260507121403 54 136 0.0 0.0 0.00 0.00 0.00 80 1033.8
20260507115403 55 136 0.0 2.0 0.00 0.00 0.00 81 1033.7
20260507114903 55 136 2.0 3.0 0.00 0.00 0.00 81 1033.8
20260507114404 55 105 0.0 3.0 0.00 0.00 0.00 81 1033.9
20260507113904 55 105 1.0 3.0 0.00 0.00 0.00 81 1033.9
20260507113403 55 105 1.0 3.0 0.00 0.00 0.00 81 1034.0
20260507112903 55 153 0.0 0.0 0.00 0.00 0.00 81 1034.0
20260507111904 55 153 0.0 0.0 0.00 0.00 0.00 81 1034.0
20260507111404 55 153 0.0 0.0 0.00 0.00 0.00 81 1034.1
20260507110403 55 153 0.0 0.0 0.00 0.00 0.00 80 1034.2
20260507105904 55 153 0.0 1.0 0.00 0.00 0.00 80 1034.2
20260507105404 55 153 0.0 0.0 0.00 0.00 0.00 80 1034.2
20260507104904 56 153 0.0 0.0 0.00 0.00 0.00 80 1034.1
20260507104403 56 153 0.0 1.0 0.00 0.00 0.00 80 1034.2
20260507103903 56 153 0.0 2.0 0.00 0.00 0.00 80 1034.2
20260507103403 56 153 1.0 3.0 0.00 0.00 0.00 80 1034.3
20260507102903 56 153 1.0 3.0 0.00 0.00 0.00 80 1034.3
20260507101403 56 223 0.0 0.0 0.00 0.00 0.00 80 1034.5
20260507100404 56 223 0.0 0.0 0.00 0.00 0.00 80 1034.5
20260507095903 56 223 0.0 0.0 0.00 0.00 0.00 80 1034.5
20260507095403 57 223 0.0 0.0 0.00 0.00 0.00 80 1034.6
20260507094904 57 223 0.0 0.0 0.00 0.00 0.00 80 1034.6
20260507094403 57 223 0.0 0.0 0.00 0.00 0.00 79 1034.7
20260507093903 57 223 0.0 3.0 0.00 0.00 0.00 79 1034.6
20260507093404 57 223 0.0 1.0 0.00 0.00 0.00 78 1034.7
20260507092903 57 223 0.0 0.0 0.00 0.00 0.00 78 1034.7
20260507092403 57 223 0.0 0.0 0.00 0.00 0.00 78 1034.7
20260507091903 57 223 0.0 0.0 0.00 0.00 0.00 77 1034.7
20260507091404 57 223 0.0 0.0 0.00 0.00 0.00 77 1034.7
20260507090904 57 223 0.0 0.0 0.00 0.00 0.00 77 1034.8
20260507085903 58 223 0.0 0.0 0.00 0.00 0.00 77 1034.9
20260507085403 58 223 0.0 0.0 0.00 0.00 0.00 76 1035.0
20260507084904 58 223 0.0 0.0 0.00 0.00 0.00 76 1035.0
20260507084404 58 223 0.0 0.0 0.00 0.00 0.00 75 1035.1
20260507083904 58 223 0.0 0.0 0.00 0.00 0.00 75 1035.1
20260507083404 58 223 0.0 0.0 0.00 0.00 0.00 74 1035.1
20260507082403 59 223 0.0 0.0 0.00 0.00 0.00 74 1035.2
20260507081903 59 223 0.0 0.0 0.00 0.00 0.00 73 1035.2
20260507081404 59 223 0.0 0.0 0.00 0.00 0.00 73 1035.2
20260507080904 59 223 0.0 0.0 0.00 0.00 0.00 73 1035.2
20260507080403 60 223 0.0 0.0 0.00 0.00 0.00 73 1035.1
20260507075903 60 223 0.0 0.0 0.00 0.00 0.00 73 1035.1
20260507075403 60 223 0.0 0.0 0.00 0.00 0.00 72 1035.1
20260507074903 60 223 0.0 0.0 0.00 0.00 0.00 71 1035.1
20260507074404 60 223 0.0 2.0 0.00 0.00 0.00 71 1035.1
20260507073904 60 223 0.0 1.0 0.00 0.00 0.00 71 1035.1
20260507073403 60 223 0.0 0.0 0.00 0.00 0.00 70 1035.2
20260507072903 60 223 0.0 0.0 0.00 0.00 0.00 70 1035.2
20260507072404 60 223 0.0 0.0 0.00 0.00 0.00 70 1035.3
20260507071904 60 223 0.0 0.0 0.00 0.00 0.00 70 1035.3
20260507070903 60 223 0.0 2.0 0.00 0.00 0.00 70 1035.4
20260507065903 61 223 0.0 0.0 0.00 0.00 0.00 70 1035.5
20260507065404 61 223 0.0 0.0 0.00 0.00 0.00 69 1035.5
20260507064904 61 223 0.0 0.0 0.00 0.00 0.00 69 1035.5
20260507064404 61 223 0.0 0.0 0.00 0.00 0.00 68 1035.6
20260507062404 61 223 0.0 0.0 0.00 0.00 0.00 67 1035.5
20260507061903 62 223 0.0 0.0 0.00 0.00 0.00 67 1035.5
20260507060904 62 223 0.0 1.0 0.00 0.00 0.00 67 1035.4
20260507060403 62 223 1.0 2.0 0.00 0.00 0.00 67 1035.4
20260507055404 63 223 1.0 2.0 0.00 0.00 0.00 67 1035.5
20260507054904 63 223 0.0 0.0 0.00 0.00 0.00 66 1035.4
20260507054403 63 223 0.0 2.0 0.00 0.00 0.00 66 1035.5
20260507053903 63 223 1.0 3.0 0.00 0.00 0.00 66 1035.4
20260507053402 63 223 0.0 2.0 0.00 0.00 0.00 66 1035.4
20260507052403 63 223 0.0 1.0 0.00 0.00 0.00 65 1035.4
20260507051903 63 223 0.0 0.0 0.00 0.00 0.00 65 1035.4
20260507051403 63 223 0.0 0.0 0.00 0.00 0.00 65 1035.4
20260507050904 64 223 1.0 2.0 0.00 0.00 0.00 65 1035.4
20260507050405 64 223 0.0 2.0 0.00 0.00 0.00 65 1035.3
20260507045903 64 224 2.0 5.0 0.00 0.00 0.00 65 1035.3
20260507045404 64 221 4.0 6.0 0.00 0.00 0.00 65 1035.2
20260507044903 64 231 4.0 6.0 0.00 0.00 0.00 65 1035.2
20260507044403 64 232 3.0 6.0 0.00 0.00 0.00 64 1035.3
20260507043903 64 223 6.0 8.0 0.00 0.00 0.00 64 1035.1
20260507043404 64 223 5.0 8.0 0.00 0.00 0.00 64 1035.2
20260507042903 65 211 5.0 7.0 0.00 0.00 0.00 63 1035.1
20260507042403 65 194 3.0 6.0 0.00 0.00 0.00 63 1035.2
20260507041903 65 199 2.0 5.0 0.00 0.00 0.00 63 1035.2
20260507041403 65 208 3.0 5.0 0.00 0.00 0.00 62 1035.1
20260507040903 66 205 3.0 6.0 0.00 0.00 0.00 62 1035.0
20260507035904 66 212 3.0 5.0 0.00 0.00 0.00 62 1034.9
20260507035403 66 225 3.0 5.0 0.00 0.00 0.00 61 1034.9
20260507034904 66 221 2.0 5.0 0.00 0.00 0.00 61 1034.8
20260507033903 67 196 1.0 3.0 0.00 0.00 0.00 61 1034.7
20260507033403 67 164 1.0 5.0 0.00 0.00 0.00 60 1034.7
20260507032904 67 164 2.0 5.0 0.00 0.00 0.00 60 1034.6
20260507032403 68 181 3.0 5.0 0.00 0.00 0.00 59 1034.5
20260507031904 68 178 1.0 3.0 0.00 0.00 0.00 59 1034.4
20260507031403 68 194 1.0 2.0 0.00 0.00 0.00 58 1034.4
20260507030903 68 194 1.0 3.0 0.00 0.00 0.00 58 1034.2
20260507030403 68 180 2.0 6.0 0.00 0.00 0.00 58 1034.2
20260507025903 69 207 5.0 8.0 0.00 0.00 0.00 57 1034.1
20260507025403 69 217 5.0 8.0 0.00 0.00 0.00 57 1034.1
20260507023903 70 215 7.0 13.0 0.00 0.00 0.00 56 1033.8
20260507023403 70 211 10.0 14.0 0.00 0.00 0.00 55 1033.8
20260507022903 70 208 5.0 10.0 0.00 0.00 0.00 54 1033.7
20260507022403 71 208 8.0 13.0 0.00 0.00 0.00 54 1033.6
20260507021903 71 210 10.0 15.0 0.00 0.00 0.00 53 1033.5
20260507021404 72 209 9.0 15.0 0.00 0.00 0.00 53 1033.5
20260507020903 72 209 11.0 15.0 0.00 0.00 0.00 52 1033.5
20260507020403 73 209 8.0 12.0 0.00 0.00 0.00 52 1033.4
20260507015903 73 212 7.0 14.0 0.00 0.00 0.00 51 1033.3
20260507015403 73 224 10.0 14.0 0.00 0.00 0.00 50 1033.2
20260507014904 74 213 11.0 15.0 0.00 0.00 0.00 49 1033.2
20260507014403 74 207 8.0 14.0 0.00 0.00 0.00 49 1033.1
20260507013903 75 225 12.0 18.0 0.00 0.00 0.00 47 1033.1
20260507013403 76 212 7.0 14.0 0.00 0.00 0.00 46 1033.1
20260507012903 77 224 7.0 14.0 0.00 0.00 0.00 44 1033.1
20260507012403 78 207 3.0 12.0 0.00 0.00 0.00 44 1033.0
20260507010903 78 297 6.0 10.0 0.00 0.00 0.00 34 1033.0
20260507010403 79 291 5.0 9.0 0.00 0.00 0.00 34 1032.9
20260507005903 79 305 6.0 12.0 0.00 0.00 0.00 34 1032.9
20260507005403 79 286 4.0 13.0 0.00 0.00 0.00 34 1032.9
20260507004903 78 306 6.0 10.0 0.00 0.00 0.00 33 1032.8
20260507004405 78 308 6.0 12.0 0.00 0.00 0.00 33 1032.9
20260507003903 79 308 5.0 9.0 0.00 0.00 0.00 33 1032.9
20260507003404 79 311 6.0 10.0 0.00 0.00 0.00 33 1032.8
20260507002403 79 318 5.0 12.0 0.00 0.00 0.00 33 1032.7
20260507001403 79 340 4.0 10.0 0.00 0.00 0.00 32 1032.7
20260507000903 79 296 6.0 12.0 0.00 0.00 0.00 32 1032.7
20260507000405 79 325 4.0 12.0 0.00 0.00 0.00 32 1032.7
20260506235903 79 310 5.0 12.0 0.00 0.00 0.00 32 1032.7
20260506235404 79 273 5.0 9.0 0.00 0.00 0.00 32 1032.6
20260506234404 79 291 8.0 12.0 0.00 0.00 0.00 33 1032.7
20260506233904 79 304 7.0 12.0 0.00 0.00 0.00 33 1032.7
20260506232903 79 311 6.0 10.0 0.00 0.00 0.00 33 1032.7
20260506231903 79 304 7.0 12.0 0.00 0.00 0.00 33 1032.8
20260506231403 79 316 6.0 12.0 0.00 0.00 0.00 33 1032.7
20260506230903 79 294 7.0 12.0 0.00 0.00 0.00 33 1032.8
20260506230403 79 325 8.0 13.0 0.00 0.00 0.00 33 1032.9
20260506225903 79 305 6.0 13.0 0.00 0.00 0.00 33 1032.8
20260506225403 79 306 6.0 12.0 0.00 0.00 0.00 33 1032.9
20260506224403 78 351 7.0 12.0 0.00 0.00 0.00 34 1033.0
20260506223903 79 316 8.0 12.0 0.00 0.00 0.00 33 1033.0
20260506222903 78 329 5.0 12.0 0.00 0.00 0.00 34 1033.1
20260506222404 78 350 2.0 8.0 0.00 0.00 0.00 33 1033.2
20260506221904 78 248 0.0 3.0 0.00 0.00 0.00 34 1033.2
20260506221403 78 281 5.0 10.0 0.00 0.00 0.00 33 1033.4
20260506220903 78 207 5.0 9.0 0.00 0.00 0.00 34 1033.4
20260506220404 77 276 2.0 3.0 0.00 0.00 0.00 35 1033.6
20260506215903 77 304 4.0 7.0 0.00 0.00 0.00 34 1033.8
20260506214904 77 279 5.0 9.0 0.00 0.00 0.00 35 1033.8
20260506214403 76 10 4.0 6.0 0.00 0.00 0.00 35 1033.8
20260506213904 76 316 4.0 8.0 0.00 0.00 0.00 36 1033.9
20260506213403 76 261 3.0 8.0 0.00 0.00 0.00 35 1034.0
20260506212904 76 316 4.0 8.0 0.00 0.00 0.00 35 1034.1
20260506212404 76 274 6.0 10.0 0.00 0.00 0.00 35 1034.2
20260506211903 76 326 5.0 9.0 0.00 0.00 0.00 35 1034.2
20260506211404 76 246 4.0 6.0 0.00 0.00 0.00 35 1034.3
20260506210903 76 252 5.0 8.0 0.00 0.00 0.00 36 1034.4
20260506210403 75 329 1.0 3.0 0.00 0.00 0.00 37 1034.4
20260506205403 74 191 3.0 7.0 0.00 0.00 0.00 36 1034.6
20260506204404 73 346 3.0 8.0 0.00 0.00 0.00 37 1034.7
20260506202903 73 16 3.0 9.0 0.00 0.00 0.00 36 1034.9
20260506201403 73 284 1.0 3.0 0.00 0.00 0.00 39 1035.2
20260506200903 72 356 3.0 5.0 0.00 0.00 0.00 39 1035.2
20260506200404 72 337 3.0 6.0 0.00 0.00 0.00 39 1035.3
20260506194904 71 266 3.0 7.0 0.00 0.00 0.00 40 1035.6
20260506194404 71 230 5.0 10.0 0.00 0.00 0.00 41 1035.7
20260506193404 71 176 2.0 6.0 0.00 0.00 0.00 44 1035.7
20260506192903 71 197 3.0 6.0 0.00 0.00 0.00 41 1035.9
20260506192404 71 156 3.0 5.0 0.00 0.00 0.00 43 1035.9
20260506191903 70 215 4.0 6.0 0.00 0.00 0.00 43 1036.1
20260506191404 70 176 2.0 7.0 0.00 0.00 0.00 44 1036.1
20260506190904 70 259 3.0 8.0 0.00 0.00 0.00 44 1036.1
20260506190403 69 194 1.0 6.0 0.00 0.00 0.00 47 1036.3
20260506185903 69 262 2.0 7.0 0.00 0.00 0.00 47 1036.2
20260506185404 68 175 1.0 3.0 0.00 0.00 0.00 48 1036.4
20260506184903 67 215 2.0 8.0 0.00 0.00 0.00 48 1036.4
20260506184404 67 264 2.0 3.0 0.00 0.00 0.00 49 1036.5
20260506183403 66 258 5.0 9.0 0.00 0.00 0.00 50 1036.6
20260506182904 66 225 4.0 7.0 0.00 0.00 0.00 50 1036.7
20260506181403 65 143 2.0 3.0 0.00 0.00 0.00 51 1036.9
20260506180903 64 265 4.0 9.0 0.00 0.00 0.00 52 1037.0
20260506180404 64 307 2.0 8.0 0.00 0.00 0.00 54 1036.9
20260506175903 64 306 5.0 8.0 0.00 0.00 0.00 53 1037.0
20260506175404 64 280 3.0 9.0 0.00 0.00 0.00 52 1037.0
20260506174403 63 227 3.0 5.0 0.00 0.00 0.00 54 1036.9
20260506173903 63 298 3.0 8.0 0.00 0.00 0.00 55 1037.0
20260506173403 63 279 3.0 6.0 0.00 0.00 0.00 55 1037.0
20260506172403 62 284 3.0 7.0 0.00 0.00 0.00 54 1037.1
20260506171404 62 334 1.0 6.0 0.00 0.00 0.00 56 1037.1
20260506170903 62 313 4.0 8.0 0.00 0.00 0.00 56 1037.1
20260506170403 62 279 3.0 7.0 0.00 0.00 0.00 56 1037.1
20260506165903 61 355 2.0 5.0 0.00 0.00 0.00 56 1037.1
20260506165404 61 324 3.0 7.0 0.00 0.00 0.00 58 1037.1
20260506164903 61 281 3.0 6.0 0.00 0.00 0.00 59 1037.1
20260506163903 60 298 2.0 6.0 0.00 0.00 0.00 61 1037.2
20260506163403 60 318 2.0 5.0 0.00 0.00 0.00 62 1037.1
20260506162903 60 309 2.0 3.0 0.00 0.00 0.00 63 1037.1
20260506162403 60 76 0.0 2.0 0.00 0.00 0.00 64 1037.1
20260506161904 59 74 1.0 3.0 0.00 0.00 0.00 66 1037.1
20260506161403 59 0 0.0 0.0 0.00 0.00 0.00 67 1037.1
20260506160903 58 0 0.0 0.0 0.00 0.00 0.00 68 1037.1
20260506160404 58 0 0.0 3.0 0.00 0.00 0.00 69 1037.1
20260506155903 58 0 2.0 3.0 0.00 0.00 0.00 71 1037.1
20260506155403 57 5 0.0 0.0 0.00 0.00 0.00 73 1037.1
20260506154903 57 5 0.0 0.0 0.00 0.00 0.00 74 1037.1
20260506154403 56 5 0.0 0.0 0.00 0.00 0.00 75 1037.1
20260506153903 56 5 0.0 0.0 0.00 0.00 0.00 76 1037.1
20260506153404 55 5 0.0 0.0 0.00 0.00 0.00 77 1037.1
20260506152903 55 278 0.0 0.0 0.00 0.00 0.00 78 1037.1
20260506152403 55 278 0.0 0.0 0.00 0.00 0.00 80 1037.1